Vorticity
nan nan nan nan nan nan nan nan nan nan nan nan nan nan nan nan nan nan nan nan nan nan nan nan nan nan nan nan nan nan nan nan nan nan nan nan nan nan nan nan nan nan nan nan nan nan nan nan nan
nan 9 7 8 5 2 14 3 6 5 10 7 9 8 5 9 13 12 7 9 8 4 4 6 6 7 7 7 6 6 5 5 5 5 5 5 5 5 5 4 5 6 5 5 4 4 4 3 nan
nan 11 8 8 0 4 5 7 4 5 6 7 9 8 13 4 4 8 11 12 6 6 5 8 7 7 7 8 7 6 6 6 5 5 5 5 5 4 4 4 6 6 5 5 5 4 4 4 nan
nan 10 5 -0 -2 9 7 6 6 7 2 -0 9 11 9 8 8 10 11 9 5 8 8 4 6 7 7 7 7 5 6 6 6 6 6 5 5 5 4 5 5 6 6 5 5 4 4 4 nan
nan 4 5 5 8 9 4 4 5 7 4 2 3 7 11 9 11 10 9 8 7 7 10 5 6 7 7 7 6 6 7 7 6 6 6 6 5 4 5 5 5 5 5 6 6 5 4 4 nan
nan 5 3 1 11 7 4 5 5 6 1 9 4 6 13 9 5 11 10 9 7 8 8 8 4 5 7 7 7 7 7 6 6 6 6 6 5 6 5 5 6 7 6 5 5 6 5 4 nan
nan 4 2 3 6 7 15 3 5 4 5 6 3 10 6 7 9 10 8 8 9 9 7 7 5 5 5 6 7 8 8 7 6 6 6 6 5 6 6 6 8 7 5 5 5 5 6 6 nan
nan 5 9 8 6 20 11 2 6 6 5 4 5 4 4 9 7 8 7 6 6 7 9 8 6 5 4 5 7 8 7 6 6 5 5 7 5 5 6 3 6 6 5 5 5 6 7 8 nan
nan 8 9 6 6 11 2 7 2 1 2 2 6 1 8 9 4 4 6 6 4 5 7 7 6 6 6 5 6 6 6 4 3 3 4 3 5 6 6 8 7 5 5 6 6 6 6 6 nan
nan 3 2 -0 7 -0 5 7 -1 -0 4 10 9 6 6 2 2 6 4 4 6 5 4 7 7 6 5 5 7 5 4 4 4 5 4 3 6 8 7 9 6 6 6 6 6 6 5 2 nan
nan 2 0 0 3 7 4 3 8 10 7 4 3 6 5 4 10 7 5 9 8 5 6 7 6 7 5 4 4 6 6 7 9 8 5 4 6 7 6 6 6 7 6 4 6 6 7 5 nan
nan 2 1 5 4 1 7 6 4 5 7 6 6 5 6 10 5 5 10 11 8 9 6 7 7 6 4 4 7 7 6 6 8 9 6 4 7 9 7 7 7 5 6 7 6 6 9 6 nan
nan 7 10 7 4 4 7 6 8 4 4 5 7 8 9 7 6 9 11 12 13 12 8 7 6 8 6 5 6 7 6 7 7 9 7 5 6 7 6 9 7 7 6 8 8 7 9 8 nan
nan 6 8 9 9 7 7 6 7 9 7 8 10 9 11 8 6 6 9 11 15 11 12 8 6 5 6 6 7 10 10 10 7 9 10 4 4 7 9 9 8 8 6 9 8 10 8 8 nan
nan 7 8 8 8 8 14 12 8 8 11 16 10 8 7 6 10 7 3 9 8 14 19 7 7 5 6 6 7 6 7 8 9 8 10 7 5 7 8 7 8 8 9 9 8 7 7 9 nan
nan 10 7 10 12 13 8 2 7 10 8 12 16 11 5 5 2 8 9 11 8 16 18 8 8 8 5 5 7 6 7 6 6 6 8 8 6 7 7 8 8 8 9 7 7 7 8 7 nan
nan 5 6 10 9 9 6 6 6 4 7 8 7 4 6 6 6 5 11 11 8 16 13 11 8 8 6 4 5 9 7 8 8 9 11 10 8 7 7 8 10 9 7 7 7 8 7 7 nan
nan 0 -0 4 4 6 9 9 14 13 6 3 3 5 6 9 14 9 14 15 14 11 10 13 8 9 6 6 5 6 9 10 9 12 12 11 11 10 9 8 10 8 7 8 9 9 7 8 nan
nan 5 6 3 3 6 8 9 8 6 8 7 7 7 7 16 14 10 14 9 10 13 18 16 8 6 5 7 9 7 9 8 8 10 12 12 12 10 9 9 9 7 9 9 7 9 8 7 nan
nan 5 7 5 6 8 7 5 9 11 13 20 17 19 15 15 17 13 7 5 11 16 15 12 10 7 4 6 9 11 9 8 8 6 5 9 12 11 12 10 8 7 9 12 11 8 5 10 nan
nan 6 5 7 7 9 12 14 14 12 9 6 16 22 17 11 16 19 6 5 8 15 14 15 15 8 6 7 7 8 8 8 7 8 7 9 8 9 11 11 12 11 11 12 10 12 11 10 nan
nan 5 3 7 11 9 7 15 15 17 14 5 16 11 10 9 7 4 5 7 10 6 15 16 13 10 9 7 8 7 4 7 9 10 10 9 8 9 8 11 11 11 11 11 11 9 9 17 nan
nan 11 15 12 7 10 12 11 11 23 28 24 12 3 6 6 6 8 8 6 8 6 9 14 16 11 10 9 8 7 8 9 12 9 8 7 7 8 8 7 6 6 7 5 10 10 14 13 nan
nan 15 19 12 14 14 12 7 4 12 19 21 9 9 8 7 6 7 8 7 5 6 9 13 10 11 13 13 10 11 11 8 8 8 5 7 7 6 7 7 6 7 10 8 9 4 6 8 nan
nan 10 15 13 11 10 14 16 12 8 6 6 6 5 6 7 9 9 7 7 6 6 7 9 9 10 10 11 12 11 9 8 8 7 7 7 6 8 8 9 9 8 8 7 7 5 6 9 nan
nan 6 2 5 4 5 12 8 6 11 11 10 6 8 7 3 6 7 8 10 9 9 8 7 7 8 9 10 10 11 9 8 9 9 7 7 10 11 9 5 10 12 8 7 7 8 8 7 nan
nan 10 -1 0 8 14 10 3 15 13 4 6 6 10 9 7 7 9 9 9 9 10 10 8 7 8 8 9 9 10 9 11 10 9 10 10 11 11 11 9 10 8 7 8 7 9 9 7 nan
nan 7 8 9 11 13 10 11 13 14 11 4 6 7 8 8 10 9 10 10 8 11 11 11 11 10 9 9 10 10 10 11 11 9 10 11 11 11 10 9 6 8 8 8 7 8 9 9 nan
nan 4 7 9 3 4 9 4 9 7 2 6 13 14 9 10 10 9 8 9 11 11 9 10 11 9 8 9 10 10 9 9 8 9 9 8 7 8 7 8 8 7 9 6 8 9 9 9 nan
nan nan nan nan nan nan nan nan nan nan nan nan nan nan nan nan nan nan nan nan nan nan nan nan nan nan nan nan nan nan nan nan nan nan nan nan nan nan nan nan nan nan nan nan nan nan nan nan nan
CAPE
0 0 0 0 0 0 2 0 0 0 0 0 0 0 0 21 547 1381 310 248 1277 847 1075 1298 1750 2272 2524 2413 2272 2302 2531 2719 2789 2752 2691 2821 2782 2639 2483 2439 2392 2250 2041 1473 1446 1782 1763 1555 1400
0 0 0 0 0 0 0 0 0 0 0 0 0 0 2 192 1127 1061 897 354 1341 794 903 1169 1595 2075 2341 2291 2200 2301 2680 2801 2783 2733 2737 2771 2716 2585 2458 2389 2302 2284 2094 1434 1172 1081 1092 999 1127
0 0 0 0 0 0 0 0 0 0 0 0 0 0 0 1449 1700 1510 1320 275 1189 911 537 1107 1508 1902 2173 2212 2216 2313 2552 2562 2574 2574 2766 2793 2714 2633 2501 2322 2303 2324 2128 1609 1348 1134 944 996 808
0 0 0 0 0 0 0 0 0 0 0 0 0 0 395 1406 1055 1564 1131 215 1268 1300 441 648 1307 1713 2064 2203 2281 2355 2367 2310 2319 2365 2652 2759 2753 2716 2488 2291 2435 2406 2196 1929 1471 1221 1074 851 737
0 0 0 0 0 0 0 0 0 0 0 0 0 0 574 1895 1412 1359 1146 566 1221 1589 1083 1032 1126 1547 1950 2202 2304 2287 2146 2118 2174 2304 2440 2507 2614 2611 2404 2313 2566 2541 2260 1996 1655 1389 1193 1086 1060
0 0 0 0 0 0 0 0 0 0 0 0 0 0 1168 1657 1731 1198 1168 888 1272 1722 1341 1035 1152 1338 1759 2058 2095 1931 1862 1867 1953 2070 2150 2371 2380 2256 2232 2322 2390 2468 2241 2008 1774 1503 1373 1276 1160
0 0 0 0 0 0 0 0 0 0 0 0 0 0 628 1426 1200 1232 1142 1302 1306 1769 2110 1031 1197 1317 1409 1595 1591 1468 1493 1599 1707 1786 1955 2087 1889 1817 2095 2213 2226 2299 1993 1689 1389 1129 801 525 445
0 0 0 0 0 0 0 0 0 0 0 0 0 0 2 1453 977 1086 779 982 1512 2157 2755 1408 1148 1334 1651 1445 1033 1119 1184 1297 1440 1593 1785 1750 1597 1704 1902 1915 1964 1774 1539 1269 946 524 490 448 334
0 0 0 0 0 0 0 0 0 0 0 0 0 0 0 936 685 819 783 788 1217 1796 2636 1880 1313 1259 1379 1682 1204 913 1077 1121 1243 1428 1516 1230 1739 1734 1605 1615 1389 1232 884 692 553 507 371 276 117
0 0 0 0 0 0 0 0 0 0 0 0 0 0 0 0 248 515 747 820 985 1434 2344 2235 1823 1401 1432 945 1217 1324 1278 1314 1326 1424 1537 1721 1629 1577 1513 1221 959 652 355 321 247 182 98 80 113
0 0 0 0 0 0 0 0 0 0 0 0 0 0 0 0 3 73 288 495 804 953 1675 2217 2134 1819 1565 967 1297 1108 1074 1072 1238 1420 1641 1519 1481 1319 1219 702 466 170 28 7 0 0 0 61 132
0 0 0 0 0 0 0 0 0 0 0 0 0 0 0 0 0 0 0 56 479 616 1038 1868 2125 2094 1778 1491 1565 1252 1459 1414 1521 1655 1868 1499 1591 1534 1317 987 720 459 2 86 0 0 0 81 0
0 0 0 0 0 0 0 0 0 0 0 0 0 0 0 0 0 0 0 0 79 421 565 1115 1797 2307 2016 2042 1846 1372 1638 1491 1677 1858 2028 1774 1735 1569 1632 1277 873 720 188 378 3 103 48 0 0
0 0 0 0 0 0 0 0 0 0 0 0 0 0 0 0 0 0 0 0 12 312 451 921 1114 1796 1926 1852 1993 1469 1666 1582 1925 2041 2040 2154 2080 1743 1516 1045 830 810 541 516 397 121 0 0 0
0 0 0 0 0 0 0 0 0 0 0 0 0 0 0 0 0 0 0 0 0 1 456 1022 1127 1186 1628 1562 2411 2078 2229 2134 1944 1889 1856 1772 1964 1953 1264 925 823 542 418 576 188 1 0 0 0
0 0 0 0 0 0 0 0 0 0 0 0 0 0 0 0 0 0 0 0 0 0 962 1127 1209 1291 1337 1809 2048 2103 1927 1701 1616 1625 1718 1637 1969 1689 1296 775 679 420 100 0 0 0 0 0 0
0 0 0 0 0 0 0 0 0 0 0 0 0 0 0 0 0 0 0 0 0 0 1115 1312 1367 1377 1626 1504 1890 1719 1822 1786 1889 1686 1714 1520 1908 1561 1171 592 376 51 0 0 0 0 0 0 0
0 0 0 0 0 0 0 0 0 0 0 0 0 0 0 0 0 0 0 0 0 0 431 1494 1598 1449 1563 1363 1552 1838 1657 1620 1460 1399 1792 1744 1602 1284 902 346 51 0 0 0 0 0 0 0 0
0 0 0 0 0 0 0 0 0 0 0 0 0 0 0 0 0 0 0 0 86 90 516 1862 1897 1774 1583 1306 1227 1654 1224 863 175 50 191 858 567 321 115 2 0 0 0 0 0 0 0 0 0
0 0 0 0 0 0 0 0 0 0 0 0 0 0 0 0 0 0 0 10 860 407 1297 2028 2131 1896 1523 1260 1071 1376 253 0 0 0 0 0 0 0 0 0 0 0 0 0 0 0 0 0 0
0 0 0 0 0 0 0 0 0 0 0 0 0 0 0 0 0 0 18 7 43 1341 2271 2234 2145 2152 1789 1362 22 0 0 0 2 4 0 0 0 0 0 0 0 0 0 0 0 0 0 0 0
0 0 0 0 0 0 0 0 0 0 0 0 0 0 0 0 0 0 51 70 180 508 804 3110 2665 2122 1435 282 0 0 0 0 3 0 0 1 1 0 0 1 1 2 3 2 2 0 0 5 0
0 0 0 8 0 0 0 0 0 0 0 0 0 0 0 10 2 0 0 0 20 0 1 346 2146 1489 635 0 0 0 0 0 2 1 3 3 3 1 0 0 0 1 1 1 0 0 0 0 0
3 0 1 3 0 0 0 0 0 0 0 0 0 0 0 0 0 0 0 0 0 0 1 0 0 0 0 0 0 0 0 0 1 1 1 1 2 0 0 0 0 0 0 0 0 0 0 0 0
2 3 16 0 5 0 0 0 0 1 0 0 0 0 0 0 0 0 0 0 0 0 0 1 0 0 0 0 0 0 0 0 0 0 0 0 2 0 2 1 2 1 0 0 0 0 0 0 0
2 4 5 0 7 0 6 2 8 1 8 0 0 0 0 0 0 0 14 31 0 0 0 1 1 1 0 0 0 0 0 0 0 0 0 0 0 0 4 3 3 1 2 2 0 0 0 0 0
7 0 0 4 0 0 0 0 0 4 1 0 0 0 0 0 0 0 6 6 3 0 0 0 1 2 1 1 1 1 1 0 1 1 0 0 0 5 15 1 0 0 0 0 0 0 0 0 0
0 4 23 33 4 2 0 0 0 80 56 5 0 0 0 0 0 0 0 7 33 42 1 4 0 1 3 1 1 2 2 1 1 0 4 3 3 10 2 0 0 0 0 0 0 0 0 0 0
0 0 12 42 44 26 0 0 0 55 71 24 0 21 41 24 16 10 24 52 101 131 5 1 0 0 1 0 0 0 1 2 0 1 0 1 1 0 1 1 0 0 0 0 0 0 0 0 0
9 23 38 80 0 3 43 0 0 0 4 29 0 0 0 2 197 66 49 40 92 7 0 0 0 0 0 0 0 0 0 0 0 1 1 1 2 0 0 0 0 0 0 0 0 0 0 0 0